Weather History for De Ridder, LA

Change the Weather History Date:

Wednesday, August 28, 2013

  Actual Average (KPOE) Record (KPOE)
Temperature  
Mean Temperature 83 °F -  
Max Temperature 94 °F 89 °F 102 °F (2011)
Min Temperature 72 °F 70 °F 68 °F (2001)
Cooling Degree Days 18    
Growing Degree Days 33 (Base 50)    
Moisture  
Dew Point 69 °F    
Average Humidity 65    
Maximum Humidity 91    
Minimum Humidity 36    
Precipitation  
Precipitation 0.00 in - - ()
Sea Level Pressure  
Sea Level Pressure 30.06 in    
Wind  
Wind Speed 1 mph (SE)    
Max Wind Speed 8 mph    
Max Gust Speed -    
Visibility 9 miles    
Events      
Averages and records for this station are not official NWS values.
T = Trace of Precipitation, MM = Missing Value Source: NWS Daily Summary

Daily Weather History Graph

Daily Weather History Graph

Search for Another Location

Airport:

Trip Planner

Search our weather history database for the weather conditions in past years. The results will help you decide how hot, cold, wet, or windy it might be!

Date:

Astronomy

Aug. 28, 2013 Rise Set
Actual Time 6:47 AM CDT 7:40 PM CDT
Civil Twilight 6:22 AM CDT 8:05 PM CDT
Nautical Twilight 5:53 AM CDT 8:34 PM CDT
Astronomical Twilight 5:23 AM CDT 9:04 PM CDT
Moon 12:06 AM CDT (8/28) 2:07 PM CDT (8/28)
Length of Visible Light 13h 42m
Length of Day
12h 53m
Waning Gibbous, 47% of the Moon is Illuminated
Aug 28
Waning Gibbous
Sep 5
New
Sep 12
First Quarter
Sep 19
Full
Sep 26
Last Quarter

Hourly Weather History & Observations

Time (CDT) Temp. Heat Index Dew Point Humidity Pressure Visibility Wind Dir Wind Speed Gust Speed Precip Events Conditions
12:15 AM 75.6 °F - 70.2 °F 83% 30.06 in 10.0 mi ESE 3.5 mph - N/A   Scattered Clouds
12:35 AM 75.7 °F - 69.8 °F 82% 30.07 in 10.0 mi Calm Calm - N/A   Scattered Clouds
12:55 AM 75.4 °F - 70.2 °F 84% 30.06 in 10.0 mi Calm Calm - N/A   Scattered Clouds
1:15 AM 74.8 °F - 70.0 °F 85% 30.06 in 10.0 mi Calm Calm - N/A   Scattered Clouds
1:35 AM 74.8 °F - 70.0 °F 85% 30.06 in 10.0 mi Calm Calm - N/A   Scattered Clouds
1:55 AM 75.2 °F - 69.4 °F 82% 30.06 in 7.0 mi Calm Calm - N/A   Scattered Clouds
2:15 AM 74.5 °F - 69.8 °F 85% 30.05 in 7.0 mi Calm Calm - N/A   Scattered Clouds
2:35 AM 74.7 °F - 70.0 °F 85% 30.05 in 10.0 mi Calm Calm - N/A   Scattered Clouds
2:55 AM 73.8 °F - 70.0 °F 88% 30.06 in 10.0 mi Calm Calm - N/A   Scattered Clouds
3:15 AM 73.4 °F - 70.2 °F 90% 30.06 in 7.0 mi Calm Calm - N/A   Scattered Clouds
3:35 AM 73.4 °F - 70.0 °F 89% 30.05 in 7.0 mi Calm Calm - N/A   Scattered Clouds
3:55 AM 73.6 °F - 70.3 °F 90% 30.05 in 7.0 mi Calm Calm - N/A   Scattered Clouds
4:15 AM 73.6 °F - 70.2 °F 89% 30.06 in 7.0 mi Calm Calm - N/A   Scattered Clouds
4:35 AM 73.4 °F - 70.3 °F 90% 30.07 in 7.0 mi Calm Calm - N/A   Mostly Cloudy
4:55 AM 73.6 °F - 70.2 °F 89% 30.07 in 7.0 mi Calm Calm - N/A   Overcast
5:15 AM 74.3 °F - 70.2 °F 87% 30.07 in 7.0 mi Calm Calm - N/A   Overcast
5:35 AM 73.9 °F - 70.0 °F 87% 30.08 in 7.0 mi Calm Calm - N/A   Mostly Cloudy
5:55 AM 73.2 °F - 69.8 °F 89% 30.08 in 7.0 mi Calm Calm - N/A   Mostly Cloudy
6:15 AM 72.9 °F - 69.8 °F 90% 30.08 in 7.0 mi Calm Calm - N/A   Mostly Cloudy
6:35 AM 72.7 °F - 69.8 °F 91% 30.08 in 7.0 mi Calm Calm - N/A   Mostly Cloudy
6:55 AM 72.5 °F - 69.3 °F 90% 30.09 in 5.0 mi Calm Calm - N/A   Mostly Cloudy
7:15 AM 72.9 °F - 69.4 °F 89% 30.09 in 7.0 mi Calm Calm - N/A   Mostly Cloudy
7:35 AM 73.4 °F - 70.0 °F 89% 30.09 in 5.0 mi Calm Calm - N/A   Mostly Cloudy
7:55 AM 73.8 °F - 70.0 °F 88% 30.10 in 7.0 mi Calm Calm - N/A   Scattered Clouds
8:15 AM 75.2 °F - 70.7 °F 86% 30.10 in 5.0 mi Calm Calm - N/A   Mostly Cloudy
8:35 AM 77.0 °F - 70.7 °F 81% 30.10 in 7.0 mi Calm Calm - N/A   Scattered Clouds
8:55 AM 78.8 °F - 71.1 °F 77% 30.11 in 5.0 mi Calm Calm - N/A   Haze
9:15 AM 80.1 °F 83.3 °F 70.3 °F 72% 30.11 in 7.0 mi Calm Calm - N/A   Scattered Clouds
9:35 AM 81.9 °F 85.8 °F 70.2 °F 68% 30.11 in 7.0 mi West 6.9 mph - N/A   Mostly Cloudy
9:55 AM 83.5 °F 88.2 °F 71.2 °F 66% 30.11 in 7.0 mi West 6.9 mph - N/A   Scattered Clouds
10:15 AM 83.7 °F 88.9 °F 71.8 °F 67% 30.11 in 7.0 mi West 8.1 mph - N/A   Scattered Clouds
10:35 AM 85.1 °F 90.4 °F 71.1 °F 63% 30.11 in 7.0 mi WSW 4.6 mph - N/A   Scattered Clouds
10:55 AM 85.8 °F 90.8 °F 70.7 °F 60% 30.11 in 7.0 mi West 5.8 mph - N/A   Scattered Clouds
11:15 AM 86.9 °F 92.1 °F 70.7 °F 58% 30.11 in 10.0 mi WNW 5.8 mph - N/A   Scattered Clouds
11:35 AM 88.5 °F 94.0 °F 70.3 °F 55% 30.11 in 10.0 mi Calm Calm - N/A   Scattered Clouds
11:55 AM 88.9 °F 94.2 °F 70.2 °F 54% 30.10 in 10.0 mi Calm Calm - N/A   Scattered Clouds
12:15 PM 91.0 °F 95.2 °F 68.5 °F 47% 30.09 in 7.0 mi WNW 6.9 mph - N/A   Scattered Clouds
12:35 PM 90.1 °F 94.0 °F 68.2 °F 48% 30.08 in 7.0 mi Calm Calm - N/A   Scattered Clouds
12:55 PM 91.4 °F 96.3 °F 69.1 °F 48% 30.08 in 10.0 mi Calm Calm - N/A   Scattered Clouds
1:15 PM 91.8 °F 95.5 °F 67.5 °F 45% 30.07 in 10.0 mi Calm Calm - N/A   Scattered Clouds
1:35 PM 91.4 °F 94.9 °F 67.6 °F 45% 30.07 in 10.0 mi Calm Calm - N/A   Scattered Clouds
1:55 PM 91.4 °F 94.0 °F 65.8 °F 43% 30.06 in 10.0 mi Calm Calm - N/A   Scattered Clouds
2:15 PM 93.2 °F 95.8 °F 65.7 °F 40% 30.05 in 10.0 mi East 3.5 mph - N/A   Scattered Clouds
2:35 PM 93.7 °F 95.8 °F 64.9 °F 38% 30.04 in 10.0 mi Calm Calm - N/A   Scattered Clouds
2:55 PM 92.5 °F 94.6 °F 64.8 °F 40% 30.04 in 10.0 mi Calm Calm - N/A   Mostly Cloudy
3:15 PM 91.4 °F 93.6 °F 65.3 °F 42% 30.03 in 10.0 mi Calm Calm - N/A   Mostly Cloudy
3:35 PM 94.1 °F 97.3 °F 66.7 °F 40% 30.02 in 10.0 mi Calm Calm - N/A   Scattered Clouds
3:55 PM 93.6 °F 95.9 °F 65.3 °F 39% 30.01 in 10.0 mi Calm Calm - N/A   Scattered Clouds
4:15 PM 93.7 °F 96.2 °F 65.1 °F 39% 30.01 in 10.0 mi Calm Calm - N/A   Mostly Cloudy
4:35 PM 92.8 °F 95.6 °F 65.7 °F 41% 30.01 in 10.0 mi Calm Calm - N/A   Scattered Clouds
4:55 PM 94.3 °F 96.7 °F 65.3 °F 38% 30.01 in 10.0 mi Calm Calm - N/A   Scattered Clouds
5:15 PM 94.1 °F 95.9 °F 63.9 °F 37% 30.00 in 10.0 mi Calm Calm - N/A   Scattered Clouds
5:35 PM 94.3 °F 95.8 °F 63.5 °F 36% 30.00 in 10.0 mi NNE 3.5 mph - N/A   Scattered Clouds
5:55 PM 92.8 °F 95.2 °F 65.3 °F 40% 30.00 in 10.0 mi ESE 3.5 mph - N/A   Scattered Clouds
6:15 PM 92.3 °F 94.7 °F 65.3 °F 41% 30.00 in 10.0 mi Calm Calm - N/A   Scattered Clouds
6:35 PM 91.9 °F 94.5 °F 66.0 °F 42% 30.00 in 10.0 mi Calm Calm - N/A   Scattered Clouds
6:55 PM 91.8 °F 94.6 °F 66.2 °F 43% 30.00 in 10.0 mi Calm Calm - N/A   Scattered Clouds
7:15 PM 90.5 °F 93.3 °F 66.7 °F 45% 30.01 in 10.0 mi East 4.6 mph - N/A   Scattered Clouds
7:35 PM 88.9 °F 91.8 °F 66.7 °F 48% 30.01 in 10.0 mi Calm Calm - N/A   Scattered Clouds
7:55 PM 87.3 °F 89.8 °F 66.7 °F 50% 30.01 in 10.0 mi Calm Calm - N/A   Scattered Clouds
8:15 PM 86.4 °F 89.0 °F 67.1 °F 52% 30.02 in 10.0 mi ESE 3.5 mph - N/A   Scattered Clouds
8:35 PM 85.3 °F 88.2 °F 67.3 °F 55% 30.02 in 10.0 mi Calm Calm - N/A   Scattered Clouds
8:55 PM 84.6 °F 87.4 °F 67.3 °F 56% 30.04 in 10.0 mi Calm Calm - N/A   Scattered Clouds
9:15 PM 84.2 °F 87.1 °F 67.6 °F 57% 30.04 in 10.0 mi Calm Calm - N/A   Scattered Clouds
9:35 PM 83.5 °F 86.4 °F 68.0 °F 59% 30.05 in 10.0 mi ESE 3.5 mph - N/A   Scattered Clouds
9:55 PM 83.3 °F 86.4 °F 68.0 °F 60% 30.05 in 10.0 mi SE 4.6 mph - N/A   Scattered Clouds
10:15 PM 82.4 °F 85.4 °F 68.2 °F 62% 30.05 in 10.0 mi ESE 4.6 mph - N/A   Scattered Clouds
10:35 PM 82.0 °F 85.3 °F 68.9 °F 64% 30.05 in 10.0 mi ESE 5.8 mph - N/A   Scattered Clouds
10:55 PM 81.3 °F 84.6 °F 69.6 °F 67% 30.05 in 10.0 mi ESE 4.6 mph - N/A   Scattered Clouds
11:15 PM 80.6 °F 83.9 °F 70.2 °F 70% 30.05 in 10.0 mi ESE 3.5 mph - N/A   Scattered Clouds
11:35 PM 79.9 °F - 70.7 °F 73% 30.06 in 10.0 mi Calm Calm - N/A   Scattered Clouds
11:55 PM 79.3 °F - 71.1 °F 76% 30.06 in 10.0 mi Calm Calm - N/A   Scattered Clouds